Regional Weather Roundup
Issued by NWS

Home | Current Version | Previous Version | Text Only | Print | Product List | Glossary On
Versions: 1 2 3 4 5 6 7 8 9 10 11 12 13 14 15 16 17 18 19 20 21 22 23 24 25 26 27
000
ASPQ40 PGUM 210110
RWRPQ
WEATHER ROUNDUP FOR THE MARIANAS AND MICRONESIA
NATIONAL WEATHER SERVICE TIYAN GU
1100 AM CHST MON JUN 21 2021

GUZ001>004-210200-
MARIANA ISLANDS-

CITY           SKY/WX    TMP DP  RH WIND       PRES   REMARKS
GUAM AIRPORT   LGT RAIN  82  75  78 E8        29.92F
ANDERSEN AFB   PTSUNNY   86  75  70 SE14      29.92F HX  95
ROTA AIRPORT   PTSUNNY   84  73  70 SE18      29.88F HX  91
TINIAN AP      MOSUNNY   88  75  66 SE9       29.90  HX  97
SAIPAN AP      MOSUNNY   90  75  62 SE13      29.91F HX 100

$$

PMZ161-210200-
REPUBLIC OF PALAU-

CITY           SKY/WX    TMP DP  RH WIND       PRES   REMARKS
KOROR AP       PTSUNNY   84  75  74 SW7       29.85F HX  92
KOROR WSO      NOT AVBL

$$

PMZ171>174-210200-
FEDERATED STATES OF MICRONESIA-

CITY           SKY/WX    TMP DP  RH WIND       PRES   REMARKS
YAP AIRPORT    MOSUNNY   86  77  74 E9        29.85F HX  97
CHUUK AP       MOSUNNY   88  81  79 VRB5      29.87F HX 105
POHNPEI AP     PTSUNNY   88  77  70 E12       29.86F HX 100
POHNPEI WSO    PTSUNNY   90  79  70 E6        29.91  HX 105
KOSRAE AP      PTSUNNY   86  77  74 NE9       29.86F HX  97

$$

PMZ181-210200-
REPUBLIC OF THE MARSHALL ISLANDS-

CITY           SKY/WX    TMP DP  RH WIND       PRES   REMARKS
KWAJALEIN AP   MOSUNNY   86  75  70 E13       29.91S HX  95
MAJURO AP      NOT AVBL
MAJURO WSO     PTSUNNY   86  77  74 E7        29.89F HX  97

$$




USA.gov is the U.S. government's official web portal to all federal, state and local government web resources and services.